LEBBLEAL

Guest
Details From LEBB - Bilbao
To LEAL - Alicante
Flight Number -
Tags Generated
Created
Modified
Stats Distance 320 nm / 593 km
Max Altitude 0 ft / 0 m
Waypoints 3
Social Downloads 1
Likes 0
Share VATSIM

Download

Looking for another format? Having issues loading an existing format? Contact us
Advertisement - Login to hide

Notes

Generated

Route

LEBB R2305 LEAL

ID Type Via Altitude Latitude Longitude Leg Dist Tot Dist Heading (true) Name
O LEBB APT - 0 ft / 0 m 43.30335˚ -2.93703˚ - 0 nm - -
R2305 FIX - 0 ft / 0 m 38.28452˚ -0.57500˚ 319 nm 319 nm 160° / 161° -
O LEAL APT - 0 ft / 0 m 38.28452˚ -0.57500˚ 0 nm 319 nm 270° / 270° -

Altitude Profile

Advertisement - Login to hide

Weather


0- 5 10 15 20 25 30 35+ Temperature / ° C

Clouds and Precipitation
Forecast for 2017-12-15 12:00 UTC. Updated an hour ago

Ground ~20,000 ft ~40,000 ft Winds

LEBB

Details ICAO LEBB (BIO)
Name Bilbao
Region Spain
Timezone Europe/Madrid (UTC+1.0)
Stats Elevation 137 ft / 42 m (AMSL)
Location 43.301692° -2.917664°
Runways 2
Magnetic Variation 0.629° W

METAR

LEBB 151230Z 30012KT 250V320 9999 -RA SCT030 SCT040 BKN050 10/06 Q1012 TEMPO 4000 RA

Decode

TAF

TAF LEBB 151100Z 1512/1612 27009KT 9999 SCT025 BKN050 TX12/1514Z TN05/1606Z BECMG 1516/1519 33014KT TEMPO 1512/1612 33015G25KT 3000 RA BKN014 PROB40 TEMPO 1512/1521 3000 SHRA SCT030TCU PROB30 TEMPO 1512/1521 1500 TSRA BKN010 SCT030CB

Decode

Departure Runways

ID Width Length Bearing (true) Bearing (mag) Surface Threshold Offset Overrun Length
10 148 ft / 45 m 6,569 ft / 2,002 m 96.66° 97.29° Asphalt 20 ft / 6 m 184 ft / 56 m
12 148 ft / 45 m 8,539 ft / 2,603 m 116.73° 117.36° Asphalt 20 ft / 6 m 197 ft / 60 m
28 148 ft / 45 m 6,569 ft / 2,002 m 276.68° 277.31° Asphalt 23 ft / 7 m 0 ft / 0 m
30 148 ft / 45 m 8,539 ft / 2,603 m 296.75° 297.38° Asphalt 1,509 ft / 460 m 171 ft / 52 m

LEAL

Details ICAO LEAL (ALC)
Name Alicante
Region Spain
Timezone Europe/Madrid (UTC+1.0)
Stats Elevation 141 ft / 43 m (AMSL)
Location 38.282169° -0.558157°
Runways 1
Magnetic Variation 0.184° E

METAR

LEAL 151230Z 29013KT 260V330 9999 FEW025 20/07 Q1009 NOSIG

Decode

TAF

TAF TAF LEAL 151100Z 1512/1612 29012KT 9999 FEW030 TX20/1513Z TN06/1606Z TEMPO 1512/1515 24011KT TEMPO 1512/1515 30012G25KT PROB40 TEMPO 1518/1521 RA BKN020 BECMG 1518/1520 30006KT

Decode

Destination Runways

ID Width Length Bearing (true) Bearing (mag) Surface Threshold Offset Overrun Length
10 148 ft / 45 m 9,799 ft / 2,987 m 100.07° 99.89° Asphalt 0 ft / 0 m 164 ft / 50 m
28 148 ft / 45 m 9,799 ft / 2,987 m 280.09° 279.91° Asphalt 0 ft / 0 m 197 ft / 60 m

Approach Navaids

Runway Type Ident Frequency Range Bearing (true) Bearing (mag) Slope Elevation
10 Localiser IAT 110.30 MHz 18 nm / 33 km 100.09° 99.91° - 29 ft / 9 m (AMSL)
10 Glidescope IAT 110.30 MHz 10 nm / 19 km 100.09° 99.91° 3.00° 129 ft / 39 m (AMSL)
10 DME IAT 110.30 MHz 18 nm / 33 km - - - 129 ft / 39 m (AMSL)

Popular Alternatives